Time,B instrument,Bx,By,Bz,sigma B,Ion instrument,Status,Tp_par,Tp_perp,carrot,r_sun,clat,clong,earth_he_angle,n_p,vp_x,vp_y,vp_z,vth_p_par,vth_p_perp
1980-11-03 00:05:34,-1,nan,nan,nan,nan,1,3,nan,nan,1701,0.65077752,-6.2592773,306.53918,95.226685,nan,322.87,2.13365,-16.3052,nan,nan
1980-11-03 00:48:46,-1,nan,nan,nan,nan,1,3,nan,nan,1701,0.65044618,-6.2622862,306.16248,95.244492,nan,324.225,1.10105,-25.6209,nan,nan
1980-11-03 01:31:58,-1,nan,nan,nan,nan,1,3,nan,nan,1701,0.65011466,-6.2652941,305.7858,95.262344,nan,324.13,5.56682,-9.80325,nan,nan
1980-11-03 02:15:10,-1,nan,nan,nan,nan,1,3,nan,nan,1701,0.64977533,-6.2683716,305.40958,95.280655,nan,321.208,4.04631,-5.99883,nan,nan
1980-11-03 02:58:22,-1,nan,nan,nan,nan,1,3,nan,nan,1701,0.64944345,-6.2713766,305.02905,95.298584,nan,322.15,12.4608,-10.7009,nan,nan
1980-11-03 05:01:37,-1,nan,nan,nan,nan,1,3,nan,nan,1701,0.64849323,-6.2799635,303.95566,95.350189,nan,313.117,15.4941,-17.5046,nan,nan
1980-11-03 05:02:58,-1,nan,nan,nan,nan,1,3,nan,nan,1701,0.64848548,-6.2800331,303.94437,95.350616,nan,311.305,12.5233,-19.8417,nan,nan
1980-11-03 05:04:19,-1,nan,nan,nan,nan,1,3,nan,nan,1701,0.64847004,-6.2801723,303.9296,95.351456,nan,314.149,14.188,-14.9852,nan,nan
1980-11-03 05:04:30,-1,nan,nan,nan,nan,1,3,nan,nan,1701,0.64846998,-6.2801723,303.9296,95.351456,nan,314.955,14.1254,-18.7565,nan,nan
1980-11-03 05:07:12,-1,nan,nan,nan,nan,1,3,nan,nan,1701,0.6484468,-6.2803822,303.90741,95.352722,nan,313.56,13.8709,-15.5637,nan,nan
1980-11-03 05:08:33,-1,nan,nan,nan,nan,1,3,nan,nan,1701,0.64843905,-6.2804518,303.89612,95.353149,nan,314.006,13.9593,-14.1309,nan,nan
1980-11-03 05:09:54,-1,nan,nan,nan,nan,1,3,nan,nan,1701,0.64843136,-6.2805214,303.88092,95.353561,nan,315.77,13.7514,-14.9677,nan,nan
1980-11-03 05:11:15,1,7.45,-7.3,-1.05,0.248328,1,1,68697.5,40521.2,1701,0.64841586,-6.2806606,303.87006,95.354416,15.2801,315.26,13.7799,-16.575,33.6766,25.8642
1980-11-03 05:13:57,-1,nan,nan,nan,nan,1,4,nan,nan,1701,0.64840043,-6.2808008,303.84744,95.355255,nan,nan,nan,nan,nan,nan
1980-11-03 05:15:16,-1,nan,nan,nan,nan,1,3,nan,nan,1701,0.64838493,-6.2809401,303.83658,95.356094,nan,314.108,11.6473,-16.419,nan,nan
1980-11-03 05:20:40,-1,nan,nan,nan,nan,1,3,nan,nan,1701,0.64834625,-6.2812891,303.7879,95.358215,nan,310.471,4.17526,-22.8793,nan,nan
1980-11-03 05:22:01,1,8.66,-5.14,-0.1,0.20199,1,1,60068.7,38740.5,1701,0.64833081,-6.2814283,303.77704,95.359055,14.8542,309.241,3.49838,-20.8141,31.4907,25.2895
1980-11-03 05:24:43,1,8.8,-5.3,-0.7,0.2,1,1,64981.5,39851.9,1701,0.64831531,-6.2815685,303.75443,95.359894,14.6202,315.193,-45.5394,-19.8993,32.7531,25.6497
1980-11-03 05:26:04,1,8.5,-5.45,-0.9,0.193649,1,1,62189.6,38149.5,1701,0.64829987,-6.2817078,303.73965,95.360733,14.9253,311.399,4.06152,-18.2852,32.0418,25.0959
1980-11-03 05:27:25,1,8.8,-5.3,-1.23333,0.149071,1,1,54717.9,37719.2,1701,0.64829212,-6.2817774,303.72836,95.36116,14.8626,311.119,3.81325,-17.7585,30.0554,24.954
1980-11-03 05:28:46,1,8.63333,-5.26667,-1.85,0.356293,1,1,64915.7,36421.0,1701,0.64828438,-6.281847,303.71707,95.361588,14.7038,312.206,3.70029,-14.221,32.7365,24.5208
1980-11-03 05:31:28,-1,nan,nan,nan,nan,1,3,nan,nan,1701,0.64826119,-6.2820568,303.69489,95.362854,nan,310.451,3.73164,-13.3437,nan,nan
1980-11-03 05:32:49,1,8.81667,-4.33333,-2.51667,0.212132,1,1,62671.8,37905.1,1701,0.64825344,-6.2821264,303.68359,95.363266,15.6796,311.362,1.30707,-11.7168,32.1658,25.0153
1980-11-03 05:34:10,1,8.8,-4.1,-2.74,0.195959,1,1,63617.3,38410.9,1701,0.648238,-6.2822657,303.67273,95.36412,15.377,312.611,1.84008,-13.2887,32.4075,25.1817
1980-11-03 05:35:31,1,8.55,-3.73333,-3.4,0.134371,1,1,67843.1,38727.6,1701,0.64823025,-6.2823353,303.6575,95.364532,16.0742,311.334,1.83312,-11.5554,33.4665,25.2853
1980-11-03 05:36:54,1,8.56667,-3.56667,-3.4,0.194365,1,1,65339.4,38361.3,1701,0.64822251,-6.2824059,303.64621,95.36496,16.3338,310.577,1.18498,-9.60232,32.8432,25.1654
1980-11-03 05:38:15,1,8.58333,-3.03333,-3.93333,0.35,1,1,66583.1,39522.9,1701,0.64820707,-6.2825451,303.63535,95.365799,16.1231,310.437,-1.10918,-8.48945,33.1543,25.5436
1980-11-03 05:39:36,1,8.75,-2.58333,-4.13333,0.522281,1,1,81616.2,38984.3,1701,0.64819932,-6.2826147,303.62405,95.366226,16.8733,313.221,-3.41228,-9.59701,36.7068,25.369
1980-11-03 06:41:04,-1,nan,nan,nan,nan,1,3,nan,nan,1701,0.64771962,-6.2869387,303.08777,95.392441,nan,305.808,8.26099,-4.52868,nan,nan
1980-11-03 06:42:25,1,7.3,-6.36,-3.8,0.257682,1,1,34185.6,32266.3,1701,0.64771193,-6.2870083,303.07648,95.392868,20.4999,307.139,9.51547,-4.96516,23.7563,23.0798
1980-11-03 06:43:46,1,7.23333,-6.53333,-3.73333,0.223607,1,1,38537.9,33420.9,1701,0.64770418,-6.2870789,303.06128,95.393295,19.6345,305.701,10.2988,-6.44824,25.2233,23.4891
1980-11-03 06:45:07,1,7.3,-6.5,-3.53333,0.188562,1,1,34552.3,31861.7,1701,0.64768869,-6.2872181,303.05038,95.394135,20.1901,307.724,11.0318,-7.05757,23.8834,22.9347
1980-11-03 06:46:30,1,7.3,-6.5,-3.53333,0.188562,1,1,39062.4,34993.0,1701,0.64768094,-6.2872877,303.03909,95.394562,20.1949,305.747,11.0129,-7.32113,25.3944,24.0352
1980-11-03 06:47:51,1,7.2,-6.48333,-4.13333,0.277389,1,1,35604.2,32158.3,1701,0.64767319,-6.2873573,303.0278,95.394989,20.0083,308.49,9.89857,-5.5282,24.2442,23.0412
1980-11-03 06:49:12,1,7.61667,-5.8,-3.6,0.40586,1,1,38702.2,37195.2,1701,0.64765775,-6.2874966,303.01694,95.395828,20.6467,305.869,10.2593,-7.2962,25.277,24.78
1980-11-03 06:50:33,1,7.2,-6.21667,-3.66667,0.283333,1,1,32647.3,34339.5,1701,0.64765,-6.2875662,303.00565,95.396255,19.6124,306.901,10.0401,-7.95838,23.2157,23.8098
1980-11-03 06:51:54,1,7.13333,-7.0,-3.93333,0.301846,1,1,38558.9,36255.2,1701,0.64764225,-6.2876368,302.99045,95.396683,20.3492,307.022,13.8966,-5.81547,25.2302,24.4649
1980-11-03 06:53:15,1,6.75,-7.25,-4.0,0.302765,1,1,33287.7,33442.3,1701,0.64762676,-6.287776,302.97955,95.397522,20.5852,307.307,12.4834,-5.16958,23.4423,23.4966
1980-11-03 06:54:36,1,7.26667,-6.83333,-3.13333,0.33665,1,1,34392.0,35276.0,1701,0.64761901,-6.2878456,302.96826,95.397949,19.8422,304.643,13.2434,-7.90771,23.8279,24.1322
1980-11-03 06:55:57,1,6.85,-6.81667,-3.93333,0.304594,1,1,35453.8,32422.4,1701,0.64761132,-6.2879152,302.95697,95.398376,20.5468,306.737,10.8107,-6.00238,24.193,23.1356
1980-11-03 06:57:18,1,6.03333,-8.23333,-3.56667,0.369685,1,1,41451.6,32831.2,1701,0.64759582,-6.2880545,302.94611,95.399216,19.6213,306.983,14.5738,-7.05796,26.1595,23.281
1980-11-03 06:58:39,1,6.83333,-7.48333,-3.2,0.37006,1,1,35087.9,33635.5,1701,0.64758807,-6.2881241,302.93481,95.399643,20.8748,306.597,10.2141,-5.17678,24.0678,23.5644
1980-11-03 07:00:00,1,6.56667,-7.76667,-3.0,0.166667,1,1,40164.9,36676.1,1701,0.64757264,-6.2882643,302.92004,95.400497,20.6144,306.174,14.1926,-7.95387,25.7502,24.6065
1980-11-03 07:01:21,1,6.23333,-8.16667,-3.06667,0.258199,1,1,36756.5,32752.8,1701,0.64756489,-6.2883339,302.90872,95.400909,20.1446,307.817,14.1083,-8.57036,24.6334,23.2532
1980-11-03 07:02:42,1,6.45,-7.71667,-2.83333,0.970967,1,1,40972.2,37392.6,1701,0.64755714,-6.2884035,302.89743,95.401337,22.0804,303.65,4.87918,-9.15202,26.0077,24.8457
1980-11-03 07:04:03,1,6.13333,-8.28333,-2.88333,0.385141,1,1,39232.2,33791.8,1701,0.64754164,-6.2885427,302.88657,95.402191,20.7351,310.318,15.8948,-10.9528,25.4495,23.6191
1980-11-03 07:06:45,1,5.5,-9.05,-2.1,0.287228,1,1,44338.0,35303.9,1701,0.64752614,-6.288682,302.86398,95.403046,20.0446,324.081,1.38814,14.6388,27.0549,24.1418
1980-11-03 07:12:08,1,0.4,-9.78333,-2.26667,0.428499,1,1,48845.4,33050.2,1701,0.64749515,-6.2889605,302.81491,95.404739,21.636,315.355,20.1999,-14.7717,28.3968,23.3585
1980-11-03 07:12:09,1,0.428571,-9.74286,-2.2,0.445842,1,1,64316.0,39467.9,1701,0.6474874,-6.2890301,302.81534,95.405167,23.9109,318.351,18.4101,-16.5998,32.585,25.5258
1980-11-03 07:13:19,1,0.116667,-10.0,-2.35,0.693221,1,1,58343.4,33310.4,1701,0.6474719,-6.2891693,302.80447,95.406021,23.1678,330.324,19.6437,-15.0191,31.0351,23.4503
1980-11-03 07:13:30,1,0.271429,-10.0,-2.02857,0.383326,1,1,77322.4,35481.5,1701,0.6474719,-6.2891693,302.80447,95.406021,26.7561,329.065,17.752,-17.0655,35.7282,24.2024
1980-11-03 07:14:51,1,0.185714,-9.31429,-0.371429,2.53353,1,1,50138.0,38262.1,1701,0.64746416,-6.2892389,302.79315,95.406433,24.2305,335.408,13.2532,-36.0583,28.7701,25.1329
1980-11-03 07:16:12,1,0.833333,-9.55,-0.216667,1.50868,1,1,59439.8,37315.5,1701,0.64744872,-6.2893782,302.78229,95.407288,23.943,321.754,8.66031,-32.1855,31.3254,24.82
1980-11-03 07:17:33,1,-1.13333,-10.2,-0.766667,0.301846,1,1,63456.4,32840.2,1701,0.64744097,-6.2894478,302.76709,95.407715,25.2234,334.18,16.6637,-20.9374,32.3665,23.2842
1980-11-03 07:18:54,1,-3.31429,-9.71429,-2.78571,0.66394,1,1,89097.1,35508.6,1701,0.64743322,-6.2895174,302.7558,95.408142,25.9272,341.574,13.5315,-20.8343,38.3521,24.2117
1980-11-03 07:20:15,1,-3.88571,-9.67143,0.9,0.650588,1,1,63484.9,37729.6,1701,0.64741772,-6.2896576,302.74493,95.408997,22.415,339.437,12.8184,-28.4315,32.3738,24.9574
1980-11-03 07:21:36,1,-4.97143,-7.87143,3.77143,0.889852,1,1,77493.6,38371.1,1701,0.64740998,-6.2897272,302.73364,95.409409,22.8402,345.585,11.5563,-37.8136,35.7677,25.1687
1980-11-03 07:22:57,1,-6.77143,-10.3429,-1.55714,1.60395,1,1,111320.0,29731.4,1701,0.64740223,-6.2897968,302.72235,95.409836,15.1246,348.422,1.33857,-31.5516,42.8692,22.1547
1980-11-03 07:24:18,1,-5.52857,-11.9,-3.64286,0.253948,1,1,53730.5,24359.7,1701,0.64738673,-6.2899361,302.71149,95.41069,15.1381,343.018,8.11684,-11.9566,29.783,20.0537
1980-11-03 07:25:39,1,-5.57143,-12.0571,-4.04286,0.209956,1,1,47283.4,35516.7,1701,0.64737898,-6.2900057,302.69629,95.411118,15.7069,342.917,16.8841,-15.0684,27.9391,24.2144
1980-11-03 07:27:00,1,-4.85714,-12.1429,-4.44286,0.318799,1,1,43310.8,33288.3,1701,0.64736348,-6.2901449,302.68539,95.411957,16.2195,343.392,15.1743,-13.6982,26.7397,23.4425
1980-11-03 07:30:07,-1,nan,nan,nan,nan,1,4,nan,nan,1701,0.6473403,-6.2903538,302.65933,95.413239,nan,nan,nan,nan,nan,nan
1980-11-03 07:31:28,1,-5.32857,-11.3714,-5.21429,0.716853,1,1,42942.5,37176.0,1701,0.64733255,-6.2904234,302.64804,95.413666,16.9552,346.322,14.6477,-10.069,26.6257,24.7736
1980-11-03 07:34:10,-1,nan,nan,nan,nan,1,3,nan,nan,1701,0.6473093,-6.2906322,302.62198,95.414932,nan,339.534,9.70121,-2.47288,nan,nan
1980-11-03 07:35:06,1,-3.62857,-11.7571,-4.64286,0.741482,1,1,51838.2,31198.9,1701,0.64730155,-6.2907019,302.61459,95.415359,17.2211,347.04,9.41132,-11.2461,29.2538,22.6949
1980-11-03 07:36:27,-1,nan,nan,nan,nan,1,3,nan,nan,1701,0.64729381,-6.2907715,302.6033,95.415787,nan,342.278,8.91679,-2.68591,nan,nan
1980-11-03 07:37:48,-1,nan,nan,nan,nan,1,3,nan,nan,1701,0.64728606,-6.2908411,302.59201,95.416214,nan,311.488,8.07783,-12.7962,nan,nan
1980-11-03 07:39:09,-1,nan,nan,nan,nan,1,3,nan,nan,1701,0.64727056,-6.2909803,302.58115,95.417068,nan,330.227,10.0424,-8.79335,nan,nan
1980-11-03 07:40:30,-1,nan,nan,nan,nan,1,3,nan,nan,1701,0.64726281,-6.2910509,302.56985,95.417496,nan,324.303,16.0184,-9.56705,nan,nan
1980-11-03 07:41:51,-1,nan,nan,nan,nan,1,3,nan,nan,1701,0.64725506,-6.2911205,302.55463,95.417908,nan,333.155,12.9782,-13.1865,nan,nan
1980-11-03 07:43:12,-1,nan,nan,nan,nan,1,3,nan,nan,1701,0.64723957,-6.2912598,302.54376,95.418762,nan,329.926,16.9605,-13.4238,nan,nan
1980-11-03 07:48:34,-1,nan,nan,nan,nan,1,4,nan,nan,1701,0.64720088,-6.2916079,302.49902,95.420883,nan,nan,nan,nan,nan,nan
1980-11-03 07:49:55,-1,nan,nan,nan,nan,1,3,nan,nan,1701,0.64719313,-6.2916775,302.48773,95.42131,nan,332.843,11.2074,-7.98329,nan,nan
1980-11-03 07:51:18,1,-0.633333,-11.6,-5.36667,1.17379,1,1,54005.6,32521.7,1701,0.64717764,-6.2918167,302.47296,95.422165,17.096,326.687,10.0897,-10.3106,29.8591,23.171
1980-11-03 07:52:39,1,-0.657143,-11.0714,-6.05714,0.467298,1,1,64842.4,37904.8,1701,0.64716989,-6.2918863,302.46167,95.422592,17.4348,330.498,10.2494,-8.69269,32.7181,25.0152
1980-11-03 07:54:00,1,1.77143,-9.82857,-5.27143,1.28301,1,1,79953.6,31395.0,1701,0.64715439,-6.2920256,302.45078,95.423431,19.1701,326.465,11.6361,-8.81637,36.331,22.7661
1980-11-03 07:58:55,1,6.2,-8.3,-2.13333,0.149071,1,1,39765.5,32238.3,1701,0.6471234,-6.292304,302.40561,95.42514,20.876,307.751,13.224,-13.5785,25.6219,23.0698
1980-11-03 08:00:16,1,6.05,-8.36667,-2.31667,0.243812,1,1,42385.2,34198.6,1701,0.64710796,-6.2924442,302.39474,95.425995,19.4605,307.178,16.1352,-11.397,26.4524,23.7609
1980-11-03 08:01:37,1,5.93333,-8.46667,-2.35,0.200693,1,1,43079.0,32859.1,1701,0.64710015,-6.2925138,302.38345,95.426407,20.9463,306.708,13.433,-12.7226,26.668,23.2909
1980-11-03 08:02:06,1,6.07143,-8.34286,-2.24286,0.16413,1,1,39932.2,35154.2,1701,0.6470924,-6.2925835,302.37997,95.426834,20.2085,306.943,16.3807,-13.5779,25.6755,24.0906
1980-11-03 08:03:27,1,4.56667,-9.53333,-2.91667,0.561991,1,1,38933.7,33834.3,1701,0.64708465,-6.2926531,302.36868,95.427261,20.6778,308.393,14.9253,-14.11,25.3525,23.634
1980-11-03 08:04:48,1,3.18333,-9.91667,-3.86667,1.09772,1,1,39385.7,35626.5,1701,0.6470769,-6.2927227,302.35739,95.427689,21.9083,312.181,18.5655,-12.5919,25.4992,24.2518
1980-11-03 08:06:09,1,5.25,-9.0,-2.7,0.386221,1,1,36435.0,33474.7,1701,0.64706141,-6.2928619,302.34262,95.428543,20.5533,312.002,15.9891,-11.5494,24.5255,23.508
1980-11-03 08:07:30,1,5.5,-9.06667,-2.43333,0.2848,1,1,37065.6,33763.3,1701,0.64705366,-6.2929316,302.33133,95.42897,20.2269,308.352,18.3227,-10.8051,24.7368,23.6092
1980-11-03 08:08:51,1,5.43333,-9.21667,-2.3,0.252212,1,1,37274.3,33105.5,1701,0.64704591,-6.2930012,302.32004,95.429398,20.1749,309.806,15.7467,-11.4261,24.8063,23.378
1980-11-03 08:10:12,1,5.93333,-8.8,-0.733333,0.194365,1,1,43663.8,34634.5,1701,0.64703041,-6.2931404,302.30917,95.430252,20.5418,310.125,16.8838,-13.6788,26.8484,23.9118
1980-11-03 08:11:33,1,4.31667,-9.63333,-2.58333,0.422295,1,1,52130.0,36362.1,1701,0.64702266,-6.29321,302.29788,95.430679,22.4057,317.238,20.2323,-6.95983,29.3361,24.5009
1980-11-03 08:12:54,1,4.0,-9.86667,-2.9,0.394405,1,1,49541.7,33971.0,1701,0.64701492,-6.2932796,302.28659,95.431107,21.3732,317.801,20.1416,-9.11543,28.5985,23.6816
1980-11-03 08:14:15,1,3.55,-10.35,-2.85,0.375278,1,1,51556.4,35422.2,1701,0.64699942,-6.2934189,302.27573,95.431961,21.6622,319.08,20.4292,-9.86571,29.1742,24.1822
1980-11-03 08:15:36,1,4.31667,-9.81667,-2.25,0.339526,1,1,44529.8,33850.1,1701,0.64699167,-6.2934885,302.26053,95.432388,20.6301,317.941,22.1397,-9.88707,27.1134,23.6395
1980-11-03 08:16:57,1,4.16667,-9.73333,-3.26667,0.412311,1,1,54089.5,36829.5,1701,0.64698392,-6.2935581,302.24924,95.432816,21.7996,320.926,21.6515,-7.55076,29.8823,24.6579
1980-11-03 08:18:18,1,4.96667,-9.2,-3.5,0.149071,1,1,38856.7,35439.0,1701,0.64696842,-6.2936974,302.23837,95.43367,20.1472,316.019,21.674,-8.08275,25.3274,24.1879
1980-11-03 08:19:39,1,5.0,-9.3,-3.43333,0.149071,1,1,44787.2,32220.3,1701,0.64696068,-6.293767,302.22708,95.434097,21.4889,314.29,17.9927,-6.85593,27.1916,23.0634
1980-11-03 08:21:00,1,5.51667,-8.76667,-2.76667,0.298608,1,1,39549.2,33630.8,1701,0.64694518,-6.2939053,302.21622,95.434952,21.423,312.429,19.0446,-8.5408,25.5521,23.5628
1980-11-03 08:22:21,1,5.38333,-8.76667,-2.83333,0.32532,1,1,43562.2,31755.6,1701,0.64693743,-6.2939758,302.20493,95.435379,21.7533,311.354,15.8773,-9.00234,26.8172,22.8964
1980-11-03 09:10:55,-1,nan,nan,nan,nan,1,4,nan,nan,1701,0.64656532,-6.2973166,301.78009,95.455872,nan,nan,nan,nan,nan,nan
1980-11-03 09:12:18,1,26.7143,-15.3571,15.5,12.274,1,1,33910.6,35137.3,1701,0.64654982,-6.2974558,301.76923,95.456726,20.0018,306.792,19.4803,-19.5524,23.6606,24.0848
1980-11-03 09:13:39,-1,nan,nan,nan,nan,1,3,nan,nan,1701,0.64654207,-6.2975254,301.75403,95.457153,nan,305.377,10.9129,-18.9096,nan,nan
1980-11-03 09:15:00,-1,nan,nan,nan,nan,1,3,nan,nan,1701,0.64652658,-6.2976646,301.74316,95.458008,nan,304.09,10.5396,-18.2494,nan,nan
1980-11-03 09:16:21,-1,nan,nan,nan,nan,1,3,nan,nan,1701,0.64651883,-6.2977333,301.7319,95.45845,nan,303.666,10.3496,-19.467,nan,nan
1980-11-03 09:17:40,-1,nan,nan,nan,nan,1,3,nan,nan,1701,0.64651102,-6.2978029,301.72061,95.458878,nan,302.093,9.5213,-18.3227,nan,nan
1980-11-03 09:20:22,-1,nan,nan,nan,nan,1,4,nan,nan,1701,0.64648777,-6.2980118,301.69846,95.460159,nan,nan,nan,nan,nan,nan
1980-11-03 09:21:43,-1,nan,nan,nan,nan,1,3,nan,nan,1701,0.64648002,-6.2980814,301.68326,95.460587,nan,303.498,10.1483,-17.7102,nan,nan
1980-11-03 09:23:06,-1,nan,nan,nan,nan,1,3,nan,nan,1701,0.64646453,-6.2982206,301.67239,95.461441,nan,303.108,11.5206,-17.3765,nan,nan
1980-11-03 09:24:27,1,6.18333,-5.78333,-1.96667,0.297209,1,1,47436.4,34426.3,1701,0.64645678,-6.2982903,301.6611,95.461868,22.2198,305.175,9.11928,-18.8956,27.9843,23.8398
1980-11-03 09:25:48,1,6.38333,-6.03333,-2.56667,0.25658,1,1,46570.7,33092.8,1701,0.64644903,-6.2983599,301.64981,95.462296,20.3996,303.086,6.45364,-20.1853,27.7277,23.3736
1980-11-03 09:27:09,1,6.36667,-6.3,-2.4,0.349603,1,1,43736.8,34265.7,1701,0.64643347,-6.2984991,301.63895,95.46315,21.3966,302.986,9.4994,-20.2607,26.8708,23.7842
1980-11-03 09:28:30,1,6.18333,-6.08333,-2.36667,0.212132,1,1,44016.9,34763.4,1701,0.64642572,-6.2985687,301.62766,95.463577,20.6034,303.35,8.44746,-18.4395,26.9568,23.9562
1980-11-03 09:29:51,1,6.1,-6.1,-2.03333,0.188562,1,1,44270.4,35819.9,1701,0.64641798,-6.2986383,301.61246,95.464005,22.2672,304.906,8.93955,-18.824,27.0343,24.3176
1980-11-03 09:31:12,1,6.56667,-6.33333,-1.55,0.258736,1,1,37932.0,32194.2,1701,0.64640248,-6.2987766,301.60159,95.464874,19.8489,300.871,10.4681,-18.9343,25.0242,23.054
1980-11-03 09:32:33,1,5.91667,-6.8,-3.16667,0.2651,1,1,42735.8,34669.6,1701,0.64639473,-6.2988462,301.5903,95.465302,21.4891,305.109,10.4809,-14.7492,26.5616,23.9239
1980-11-03 09:33:54,1,6.0,-7.06667,-2.36667,0.226078,1,1,44342.6,32846.1,1701,0.64638698,-6.2989159,301.57901,95.465729,20.8339,303.46,10.9892,-18.5091,27.0563,23.2863
1980-11-03 09:35:15,1,4.8,-7.58333,-2.9,0.313138,1,1,47499.1,33670.3,1701,0.64637142,-6.2990551,301.56815,95.466583,24.91,310.34,11.0525,-19.4603,28.0027,23.5766
1980-11-03 09:36:36,1,3.56667,-7.4,-4.8,0.381517,1,1,52827.2,29960.4,1701,0.64636368,-6.2991247,301.55685,95.46701,27.0642,315.96,7.10915,-15.3606,29.5316,22.2398
1980-11-03 09:37:57,1,3.4,-7.76667,-5.1,0.344803,1,1,33569.4,28617.6,1701,0.64635593,-6.2991943,301.54166,95.467438,28.0265,315.869,5.8425,-15.3564,23.5413,21.7357
1980-11-03 09:39:16,1,2.8,-7.9,-5.5,0.294392,1,1,41154.6,27933.0,1701,0.64634043,-6.2993336,301.53079,95.468292,28.8024,315.24,7.84731,-14.9469,26.0655,21.4742
1980-11-03 09:41:58,1,2.8,-8.2,-4.9,0.0,1,1,36955.3,25078.7,1701,0.64632493,-6.2994728,301.50821,95.469147,28.9555,302.244,54.8903,-16.5179,24.7,20.3475
1980-11-03 09:43:19,1,2.975,-8.0,-4.85,0.272718,1,1,25367.2,23775.9,1701,0.64630944,-6.299612,301.49734,95.470001,27.4879,312.779,5.53,-17.2703,20.4642,19.8119
1980-11-03 09:44:42,1,2.88333,-8.03333,-5.21667,0.308221,1,1,35734.8,25945.1,1701,0.64630163,-6.2996817,301.48605,95.470428,27.9702,313.165,6.04853,-18.8927,24.2887,20.6959
1980-11-03 09:46:03,1,3.06667,-8.06667,-4.5,0.278887,1,1,28532.9,25636.4,1701,0.64628613,-6.2998199,301.47131,95.471298,29.2267,311.719,5.58553,-18.1968,21.7035,20.5725
1980-11-03 09:47:24,1,2.96667,-7.58333,-5.56667,0.314907,1,1,35667.8,26923.8,1701,0.64627838,-6.2998896,301.46002,95.471725,29.0762,314.775,2.82952,-16.2697,24.2659,21.0827
1980-11-03 09:48:45,1,2.56667,-7.43333,-5.9,0.260342,1,1,28886.4,24130.8,1701,0.64627063,-6.2999592,301.44873,95.472153,30.1813,315.829,5.29234,-13.1876,21.8376,19.9592
1980-11-03 09:50:06,1,2.5,-7.61667,-6.23333,0.305959,1,1,33197.5,23404.9,1701,0.64625514,-6.3000984,301.43787,95.473007,29.9758,315.124,6.97764,-12.9343,23.4105,19.6567
1980-11-03 09:51:27,1,0.583333,-6.33333,-7.51667,0.749444,1,1,22315.1,20308.0,1701,0.64624739,-6.300168,301.42657,95.473434,31.5587,314.45,7.9032,-12.1693,19.1936,18.3101
1980-11-03 09:52:48,1,-0.0166667,-6.66667,-8.35,0.727629,1,1,36324.5,27240.6,1701,0.64623958,-6.3002377,301.41528,95.473862,29.6998,313.007,8.39743,-13.9935,24.4883,21.2063
1980-11-03 09:54:09,1,3.03333,-7.4,-5.3,0.268742,1,1,29442.5,23455.8,1701,0.64622408,-6.3003769,301.40442,95.474716,30.1986,313.655,7.50299,-11.6888,22.0468,19.6781
1980-11-03 09:55:30,1,2.3,-7.78333,-5.63333,0.2651,1,1,38778.6,28403.6,1701,0.64621633,-6.3004465,301.38922,95.475143,30.3399,311.594,7.42816,-13.8643,25.3019,21.6543
1980-11-03 09:56:51,1,2.86667,-8.33333,-4.53333,0.270801,1,1,29018.8,24437.5,1701,0.64620858,-6.3005161,301.37793,95.475571,30.2313,312.456,7.39257,-15.1561,21.8876,20.0856
1980-11-03 09:58:12,1,3.23333,-8.3,-4.68333,0.327024,1,1,38846.8,24796.8,1701,0.64619309,-6.3006554,301.36707,95.476425,28.7357,306.501,5.68525,-19.6021,25.3242,20.2328
1980-11-03 09:59:33,1,3.46667,-8.85,-5.26667,0.252212,1,1,24890.1,25196.0,1701,0.64618534,-6.300725,301.35577,95.476852,27.5965,308.35,9.47095,-15.4594,20.2708,20.395
1980-11-03 10:00:54,1,2.96667,-9.01667,-5.68333,0.254951,1,1,39166.3,22484.9,1701,0.64617753,-6.3007946,301.34448,95.477295,27.7172,306.419,8.20242,-14.4018,25.4281,19.2665
1980-11-03 10:02:15,1,3.68333,-8.83333,-5.8,0.294863,1,1,25053.3,23573.5,1701,0.64616203,-6.3009329,301.33362,95.478149,28.4112,306.083,8.76997,-14.4502,20.3372,19.7274
1980-11-03 10:03:36,1,3.43333,-8.9,-6.13333,0.272845,1,1,33924.6,23110.0,1701,0.64615428,-6.3010025,301.31842,95.478577,27.1786,304.638,10.1409,-14.2419,23.6655,19.5325
1980-11-03 10:04:57,1,3.28333,-8.98333,-5.26667,0.584523,1,1,26887.3,23190.7,1701,0.64614654,-6.3010721,301.30713,95.479004,28.7745,306.067,10.4277,-14.0068,21.0684,19.5666
1980-11-03 10:06:18,1,3.03333,-8.96667,-5.8,0.444722,1,1,32044.0,22173.7,1701,0.64613098,-6.3012114,301.2963,95.479874,26.6674,305.695,11.9547,-15.6954,23.0002,19.1327
1980-11-03 10:07:39,1,2.28333,-9.33333,-5.96667,0.320156,1,1,27604.2,23262.2,1701,0.64612323,-6.301281,301.285,95.480301,28.5377,309.839,9.22766,-12.2986,21.3474,19.5967
1980-11-03 10:09:00,1,3.94,-8.68,-5.6,0.178885,1,1,30086.6,22140.2,1701,0.64610773,-6.3014202,301.27414,95.481155,28.0939,306.786,10.0482,-12.3863,22.2866,19.1183
1980-11-03 10:10:21,1,3.96667,-9.03333,-5.6,0.194365,1,1,23559.7,21673.2,1701,0.64609993,-6.3014898,301.26285,95.481583,30.5061,307.601,11.6177,-14.4274,19.7216,18.9156
1980-11-03 10:11:42,1,4.25,-9.23333,-5.11667,0.198606,1,1,27733.2,20336.8,1701,0.64609218,-6.3015594,301.24765,95.482025,27.6917,304.842,12.3645,-13.4733,21.3972,18.3231
1980-11-03 10:13:03,1,4.5,-9.15,-4.5,0.298608,1,1,22418.2,20144.9,1701,0.64607668,-6.3016987,301.23679,95.48288,30.9689,306.726,10.1455,-15.7804,19.2379,18.2364
1980-11-03 10:14:24,1,5.11667,-8.61667,-4.63333,0.261406,1,1,26690.7,19907.1,1701,0.64606887,-6.3017683,301.22549,95.483307,27.1455,303.233,10.9611,-13.604,20.9912,18.1285
1980-11-03 10:15:45,1,1.8,-8.35,-5.95,2.83225,1,1,24054.2,22814.8,1701,0.64606112,-6.3018379,301.2142,95.483734,29.8535,306.803,10.0118,-17.2546,19.9275,19.4073
1980-11-03 10:17:06,1,-0.183333,-8.23333,-7.15,0.407567,1,1,34841.8,21090.8,1701,0.64604563,-6.3019762,301.20337,95.484604,31.6752,318.643,4.27259,-14.1146,23.9833,18.6597
1980-11-03 10:18:27,1,-0.533333,-8.05,-7.56667,0.332081,1,1,19899.1,19153.0,1701,0.64603788,-6.3020458,301.19208,95.485031,33.4488,311.574,7.41913,-13.2854,18.1248,17.7818
1980-11-03 10:19:48,1,-3.5,-7.66,-8.5,0.215407,1,1,23605.6,21675.3,1701,0.64603007,-6.3021154,301.17688,95.485458,26.0992,303.235,2.74023,-19.4953,19.7409,18.9165
1980-11-03 10:21:09,1,-5.58333,-7.01667,-8.51667,0.53929,1,1,23990.2,22334.4,1701,0.64601457,-6.3022547,301.16602,95.486313,26.8984,304.676,6.85148,-18.9306,19.901,19.2019
1980-11-03 10:22:30,1,-5.85,-7.03333,-8.63333,0.224227,1,1,21403.0,24347.4,1701,0.64600682,-6.3023243,301.15472,95.486755,25.4918,309.03,2.3387,-19.7371,18.7973,20.0486
1980-11-03 10:23:51,1,-5.81667,-7.06667,-8.41667,0.234521,1,1,19270.8,20708.5,1701,0.64599901,-6.3023939,301.14343,95.487183,26.0101,309.318,5.91248,-19.0926,17.8364,18.4898
1980-11-03 10:25:12,1,-5.38333,-6.55,-8.58333,0.308671,1,1,20567.1,23404.9,1701,0.64598352,-6.3025331,301.13257,95.488037,26.3594,308.869,0.368186,-18.5707,18.4266,19.6567